CW4713 Weather Reports


Display with metric or nautical units.
time (UTC)temp
F
wind
direction
speed
MPH
gust
MPH
rain 1hr
in
rain 24hr
in
rain mn
in
humidity
%
barometer
mb
20260507012306 47 213 2.0 6.0 0.00 0.00 0.00 72 1014.1
20260507011805 47 257 3.0 7.0 0.00 0.00 0.00 72 1014.0
20260507011304 47 244 4.0 10.0 0.00 0.00 0.00 72 1014.1
20260507010804 47 238 6.0 10.0 0.00 0.00 0.00 71 1014.1
20260507010304 47 238 6.0 13.0 0.00 0.00 0.00 71 1014.1
20260507005805 48 259 5.0 9.0 0.00 0.00 0.00 71 1014.0
20260507005305 48 269 3.0 9.0 0.00 0.00 0.00 71 1014.0
20260507004804 47 246 3.0 9.0 0.00 0.00 0.00 72 1013.9
20260507004304 47 277 3.0 7.0 0.00 0.00 0.00 73 1013.9
20260507003804 47 278 3.0 6.0 0.00 0.00 0.00 74 1013.9
20260507003304 47 280 3.0 6.0 0.00 0.00 0.00 74 1013.9
20260507002804 47 284 3.0 7.0 0.00 0.00 0.00 74 1013.8
20260507002306 47 287 3.0 7.0 0.00 0.00 0.00 74 1013.8
20260507001804 47 304 3.0 8.0 0.00 0.00 0.00 73 1013.8
20260507001304 47 308 2.0 6.0 0.00 0.00 0.00 73 1013.7
20260507000805 47 318 2.0 6.0 0.00 0.00 0.00 72 1013.8
20260507000306 47 298 2.0 7.0 0.00 0.00 0.00 71 1013.7
20260506235804 48 293 5.0 9.0 0.00 0.00 0.00 71 1013.7
20260506235306 48 310 3.0 6.0 0.00 0.00 0.00 70 1013.6
20260506234804 48 335 2.0 6.0 0.00 0.00 0.00 69 1013.6
20260506234304 48 270 2.0 7.0 0.00 0.00 0.00 68 1013.6
20260506233804 48 278 4.0 7.0 0.00 0.00 0.00 70 1013.6
20260506233304 48 315 2.0 7.0 0.00 0.00 0.00 70 1013.5
20260506232805 48 296 4.0 8.0 0.00 0.00 0.00 70 1013.5
20260506232306 48 298 5.0 9.0 0.00 0.00 0.00 69 1013.5
20260506231804 48 314 4.0 7.0 0.00 0.00 0.00 67 1013.5
20260506231304 48 298 4.0 10.0 0.00 0.00 0.00 66 1013.5
20260506230805 48 247 6.0 9.0 0.00 0.00 0.00 65 1013.5
20260506230305 48 247 3.0 10.0 0.00 0.00 0.00 66 1013.5
20260506225804 48 290 6.0 9.0 0.00 0.00 0.00 65 1013.4
20260506225306 48 258 4.0 12.0 0.00 0.00 0.00 65 1013.5
20260506224804 48 250 5.0 10.0 0.00 0.00 0.00 66 1013.4
20260506224304 48 274 4.0 9.0 0.00 0.00 0.00 66 1013.4
20260506223805 48 252 4.0 13.0 0.00 0.00 0.00 66 1013.3
20260506223304 48 227 7.0 14.0 0.00 0.00 0.00 65 1013.3
20260506222804 48 235 6.0 13.0 0.00 0.00 0.00 65 1013.2
20260506222306 48 249 9.0 15.0 0.00 0.00 0.00 64 1013.2
20260506221804 48 260 6.0 13.0 0.00 0.00 0.00 63 1013.1
20260506221304 48 251 6.0 9.0 0.00 0.00 0.00 62 1013.1
20260506220804 49 239 6.0 12.0 0.00 0.00 0.00 64 1013.0
20260506220305 49 221 3.0 9.0 0.00 0.00 0.00 67 1013.0
20260506215804 48 229 2.0 3.0 0.00 0.00 0.00 67 1013.0
20260506215306 48 243 2.0 3.0 0.00 0.00 0.00 68 1012.9
20260506214804 48 290 2.0 5.0 0.00 0.00 0.00 68 1012.9
20260506214304 48 279 2.0 3.0 0.00 0.00 0.00 68 1012.9
20260506213804 48 267 2.0 5.0 0.00 0.00 0.00 68 1012.8
20260506213304 48 285 3.0 7.0 0.00 0.00 0.00 67 1012.8
20260506212805 48 327 5.0 9.0 0.00 0.00 0.00 67 1012.8
20260506212306 49 336 4.0 7.0 0.00 0.00 0.00 68 1012.8
20260506211805 49 13 4.0 8.0 0.00 0.00 0.00 68 1012.7
20260506211304 48 352 4.0 8.0 0.00 0.00 0.00 68 1012.7
20260506210804 48 338 3.0 8.0 0.00 0.00 0.00 68 1012.6
20260506210304 48 299 3.0 8.0 0.00 0.00 0.00 68 1012.6
20260506205804 48 359 2.0 7.0 0.00 0.00 0.00 68 1012.6
20260506205306 48 306 3.0 7.0 0.00 0.00 0.00 68 1012.6
20260506204804 48 326 3.0 7.0 0.00 0.00 0.00 68 1012.6
20260506204304 49 5 5.0 8.0 0.00 0.00 0.00 69 1012.5
20260506203804 48 329 2.0 7.0 0.00 0.00 0.00 69 1012.5
20260506203304 48 329 3.0 7.0 0.00 0.00 0.00 69 1012.5
20260506202804 47 260 2.0 6.0 0.00 0.00 0.00 70 1012.4
20260506202306 47 334 5.0 7.0 0.00 0.00 0.00 71 1012.4
20260506201805 47 278 2.0 6.0 0.00 0.00 0.00 71 1012.4
20260506201304 47 314 3.0 7.0 0.00 0.00 0.00 71 1012.3
20260506200804 47 296 2.0 5.0 0.00 0.00 0.00 72 1012.3
20260506200304 46 295 3.0 6.0 0.00 0.00 0.00 72 1012.3
20260506195804 46 323 3.0 6.0 0.00 0.00 0.00 72 1012.2
20260506195306 46 277 2.0 7.0 0.00 0.00 0.00 72 1012.2
20260506194804 46 292 3.0 7.0 0.00 0.00 0.00 72 1012.2
20260506194304 46 294 2.0 7.0 0.00 0.00 0.00 72 1012.2
20260506193804 46 310 3.0 7.0 0.00 0.00 0.00 72 1012.2
20260506193304 46 6 3.0 7.0 0.00 0.00 0.00 72 1012.1
20260506192804 46 306 6.0 9.0 0.00 0.00 0.00 72 1012.1
20260506192306 46 289 2.0 7.0 0.00 0.00 0.00 72 1012.1
20260506191804 46 322 3.0 6.0 0.00 0.00 0.00 71 1012.1
20260506191304 46 309 3.0 6.0 0.00 0.00 0.00 71 1012.1
20260506190804 46 298 2.0 5.0 0.00 0.00 0.00 71 1012.0
20260506190305 46 255 2.0 5.0 0.00 0.00 0.00 70 1012.0
20260506185804 46 282 1.0 2.0 0.00 0.00 0.00 72 1012.0
20260506185306 46 300 1.0 2.0 0.00 0.00 0.00 72 1012.0
20260506184804 46 294 1.0 5.0 0.00 0.00 0.00 73 1012.0
20260506184305 46 315 0.0 3.0 0.00 0.00 0.00 74 1012.0
20260506183804 45 2 1.0 2.0 0.00 0.00 0.00 74 1011.9
20260506183304 45 340 1.0 2.0 0.00 0.00 0.00 74 1011.9
20260506182804 45 200 0.0 0.0 0.00 0.00 0.00 75 1011.9
20260506182306 45 200 0.0 2.0 0.00 0.00 0.00 75 1012.0
20260506181804 45 217 1.0 2.0 0.00 0.00 0.00 75 1011.9
20260506181304 45 193 2.0 3.0 0.00 0.00 0.00 76 1011.9
20260506180804 44 72 0.0 0.0 0.00 0.00 0.00 76 1011.8
20260506180304 44 72 0.0 2.0 0.00 0.00 0.00 76 1011.6
20260506175804 44 96 1.0 2.0 0.00 0.00 0.00 76 1011.8
20260506175306 44 178 2.0 3.0 0.00 0.00 0.00 77 1011.8
20260506174804 44 165 1.0 2.0 0.00 0.00 0.00 77 1011.7
20260506174305 43 192 1.0 2.0 0.00 0.00 0.00 77 1011.5
20260506173804 43 212 1.0 2.0 0.00 0.00 0.00 77 1011.7
20260506173305 43 231 2.0 2.0 0.00 0.00 0.00 77 1011.7
20260506172805 43 203 0.0 2.0 0.00 0.00 0.00 78 1011.7
20260506172307 43 229 2.0 2.0 0.00 0.00 0.00 78 1011.6
20260506171804 43 199 0.0 0.0 0.00 0.00 0.00 78 1011.6
20260506171304 42 199 0.0 2.0 0.00 0.00 0.00 78 1011.6
20260506170804 42 241 0.0 1.0 0.00 0.00 0.00 78 1011.5
20260506170304 42 241 0.0 1.0 0.00 0.00 0.00 79 1011.5
20260506165804 42 220 0.0 0.0 0.00 0.00 0.00 79 1011.5
20260506165306 42 220 0.0 0.0 0.00 0.00 0.00 79 1011.4
20260506164805 42 220 0.0 2.0 0.00 0.00 0.00 79 1011.4
20260506164304 42 196 2.0 2.0 0.00 0.00 0.00 79 1011.3
20260506163805 42 194 1.0 2.0 0.00 0.00 0.00 79 1011.3
20260506163304 42 197 2.0 2.0 0.00 0.00 0.00 79 1011.2
20260506162804 42 148 0.0 1.0 0.00 0.00 0.00 80 1011.2
20260506162307 41 146 1.0 2.0 0.00 0.00 0.00 80 1011.2
20260506161805 41 209 0.0 0.0 0.00 0.00 0.00 80 1011.1
20260506161304 41 209 0.0 0.0 0.00 0.00 0.00 80 1011.1
20260506160804 41 209 0.0 0.0 0.00 0.00 0.00 80 1011.2
20260506160304 41 209 0.0 2.0 0.00 0.00 0.00 80 1011.1
20260506155804 41 211 2.0 5.0 0.00 0.00 0.00 80 1011.1
20260506155306 41 16 1.0 5.0 0.00 0.00 0.00 80 1011.1
20260506154804 41 345 0.0 6.0 0.00 0.00 0.00 80 1011.0
20260506154304 41 29 3.0 7.0 0.00 0.00 0.00 80 1010.9
20260506153804 41 42 3.0 8.0 0.00 0.00 0.00 80 1010.9
20260506153304 41 18 3.0 10.0 0.00 0.00 0.00 80 1010.9
20260506152804 40 21 5.0 10.0 0.00 0.00 0.00 81 1010.9
20260506152306 40 20 5.0 8.0 0.00 0.00 0.00 81 1010.9
20260506151804 40 7 3.0 6.0 0.00 0.00 0.00 81 1010.8
20260506151304 40 17 3.0 7.0 0.00 0.00 0.00 81 1010.8
20260506150804 39 24 3.0 7.0 0.00 0.00 0.00 82 1010.8
20260506150305 39 357 2.0 5.0 0.00 0.00 0.00 82 1010.8
20260506145804 38 15 2.0 3.0 0.00 0.00 0.00 82 1010.8
20260506145306 38 16 1.0 3.0 0.00 0.00 0.00 82 1010.8
20260506144804 38 36 0.0 5.0 0.00 0.00 0.00 82 1010.7
20260506144304 38 15 1.0 2.0 0.00 0.00 0.00 82 1010.8
20260506143805 38 28 0.0 2.0 0.00 0.00 0.00 82 1010.7
20260506143304 38 17 1.0 3.0 0.00 0.00 0.00 82 1010.7
20260506142804 38 27 1.0 3.0 0.00 0.00 0.00 82 1010.7
20260506142306 37 9 2.0 5.0 0.00 0.00 0.00 82 1010.7
20260506141804 37 3 1.0 5.0 0.00 0.00 0.00 82 1010.7
20260506141305 37 26 2.0 5.0 0.00 0.00 0.00 83 1010.7
20260506140804 37 24 2.0 5.0 0.00 0.00 0.00 83 1010.7
20260506140304 36 350 3.0 5.0 0.00 0.00 0.00 82 1010.7
20260506135804 37 349 2.0 3.0 0.00 0.00 0.00 82 1010.7
20260506135306 36 11 2.0 2.0 0.00 0.00 0.00 82 1010.8
20260506134805 37 11 1.0 3.0 0.00 0.00 0.00 82 1010.7
20260506134304 37 0 1.0 3.0 0.00 0.00 0.00 82 1010.8
20260506133804 37 25 0.0 0.0 0.00 0.00 0.00 82 1010.7
20260506133304 37 25 0.0 0.0 0.00 0.00 0.00 82 1010.7
20260506132804 37 25 0.0 0.0 0.00 0.00 0.00 82 1010.7
20260506132307 37 25 0.0 0.0 0.00 0.00 0.00 82 1010.7
20260506131804 37 25 0.0 0.0 0.00 0.00 0.00 81 1010.6
20260506131304 37 14 1.0 2.0 0.00 0.00 0.00 81 1010.6
20260506130804 37 150 0.0 1.0 0.00 0.00 0.00 81 1010.6
20260506130304 37 158 0.0 0.0 0.00 0.00 0.00 81 1010.6
20260506125804 37 158 0.0 0.0 0.00 0.00 0.00 81 1010.5
20260506125306 37 158 0.0 1.0 0.00 0.00 0.00 81 1010.5
20260506124804 37 31 0.0 0.0 0.00 0.00 0.00 81 1010.5
20260506124304 37 31 0.0 0.0 0.00 0.00 0.00 80 1010.5
20260506123804 37 42 1.0 2.0 0.00 0.00 0.00 80 1010.5
20260506123304 37 116 0.0 2.0 0.00 0.00 0.00 80 1010.4
20260506122804 37 114 0.0 2.0 0.00 0.00 0.00 80 1010.4
20260506122306 37 121 2.0 3.0 0.00 0.00 0.00 80 1010.3
20260506121804 37 320 0.0 0.0 0.00 0.00 0.00 80 1010.3
20260506121304 37 320 0.0 0.0 0.00 0.00 0.00 79 1010.3
20260506120804 37 320 0.0 0.0 0.00 0.00 0.00 79 1010.3
20260506120304 38 320 0.0 0.0 0.00 0.00 0.00 79 1010.2
20260506115804 38 320 0.0 0.0 0.00 0.00 0.00 79 1010.2
20260506115307 38 320 0.0 0.0 0.00 0.00 0.00 78 1010.2
20260506114804 38 320 0.0 0.0 0.00 0.00 0.00 78 1010.2
20260506104304 40 128 0.0 0.0 0.00 0.00 0.00 75 1009.9
20260506103804 40 128 1.0 2.0 0.00 0.00 0.00 75 1009.9
20260506103303 40 246 1.0 3.0 0.00 0.00 0.00 76 1009.8
20260506102804 39 292 2.0 3.0 0.00 0.00 0.00 76 1009.8
20260506102305 39 253 4.0 7.0 0.00 0.00 0.00 76 1009.8
20260506101804 38 258 0.0 0.0 0.00 0.00 0.00 76 1009.8
20260506101304 38 185 1.0 5.0 0.00 0.00 0.00 76 1009.8
20260506100804 38 58 1.0 3.0 0.00 0.00 0.00 77 1009.8
20260506100304 38 29 1.0 2.0 0.00 0.00 0.00 76 1009.8
20260506095804 38 195 3.0 5.0 0.00 0.00 0.00 76 1009.7
20260506095305 38 356 0.0 0.0 0.00 0.00 0.00 76 1009.7
20260506094804 38 356 0.0 1.0 0.00 0.00 0.00 76 1009.7
20260506094304 38 17 0.0 2.0 0.00 0.00 0.00 76 1009.6
20260506084304 39 32 0.0 2.0 0.00 0.00 0.00 73 1009.1
20260506083805 39 158 1.0 2.0 0.00 0.00 0.00 73 1009.0
20260506083304 39 66 2.0 3.0 0.00 0.00 0.00 73 1009.0
20260506082804 39 332 1.0 2.0 0.00 0.00 0.00 73 1008.9
20260506082305 39 353 0.0 0.0 0.00 0.00 0.00 73 1008.9
20260506081805 38 353 1.0 2.0 0.00 0.00 0.00 72 1008.8
20260506081304 39 195 0.0 2.0 0.00 0.00 0.00 72 1008.8
20260506080805 39 244 1.0 5.0 0.00 0.00 0.00 72 1008.8
20260506080305 39 257 1.0 2.0 0.00 0.00 0.00 71 1008.7
20260506062305 45 357 0.0 0.0 0.00 0.00 0.00 61 1007.9
20260506061804 45 357 0.0 0.0 0.00 0.00 0.00 60 1007.8
20260506061304 46 357 0.0 0.0 0.00 0.00 0.00 59 1007.8
20260506060804 46 357 0.0 0.0 0.00 0.00 0.00 58 1007.7
20260506060303 46 357 0.0 0.0 0.00 0.00 0.00 58 1007.6
20260506051304 49 189 0.0 2.0 0.00 0.00 0.00 52 1007.1
20260506050804 49 162 0.0 2.0 0.00 0.00 0.00 51 1007.1
20260506050304 49 148 0.0 2.0 0.00 0.00 0.00 51 1007.0
20260506044804 50 141 3.0 7.0 0.00 0.00 0.00 49 1006.8
20260506044304 50 153 4.0 9.0 0.00 0.00 0.00 49 1006.8
20260506043804 51 186 4.0 14.0 0.00 0.00 0.00 49 1006.7
20260506043304 51 178 4.0 9.0 0.00 0.00 0.00 48 1006.6
20260506042804 52 164 7.0 14.0 0.00 0.00 0.00 47 1006.6
20260506042305 52 148 3.0 13.0 0.00 0.00 0.00 47 1006.6
20260506041804 53 168 6.0 10.0 0.00 0.00 0.00 46 1006.5
20260506041304 54 177 6.0 10.0 0.00 0.00 0.00 46 1006.5
20260506040805 54 190 3.0 8.0 0.00 0.00 0.00 46 1006.3
20260506040304 54 175 3.0 13.0 0.00 0.00 0.00 46 1006.2
20260506035804 55 179 3.0 8.0 0.00 0.00 0.00 47 1006.2
20260506035306 54 208 6.0 12.0 0.00 0.00 0.00 46 1006.2
20260506034804 54 213 1.0 3.0 0.00 0.00 0.00 49 1006.2
20260506034304 54 17 1.0 3.0 0.00 0.00 0.00 49 1006.1
20260506033804 53 84 2.0 6.0 0.00 0.00 0.00 48 1006.1
20260506033304 53 158 2.0 6.0 0.00 0.00 0.00 48 1006.1
20260506032804 53 154 2.0 9.0 0.00 0.00 0.00 48 1006.0
20260506032306 53 162 3.0 8.0 0.00 0.00 0.00 47 1005.9
20260506031804 54 172 5.0 9.0 0.00 0.00 0.00 47 1005.8
20260506031304 54 167 5.0 8.0 0.00 0.00 0.00 48 1005.8
20260506030804 54 92 6.0 12.0 0.00 0.00 0.00 47 1005.7
20260506030304 55 4 3.0 8.0 0.00 0.00 0.00 50 1005.8
20260506025804 54 311 4.0 8.0 0.00 0.00 0.00 50 1005.7
20260506025305 54 7 6.0 7.0 0.00 0.00 0.00 51 1005.6
20260506024804 54 342 2.0 3.0 0.00 0.00 0.00 52 1005.6
20260506024304 54 357 4.0 6.0 0.00 0.00 0.00 52 1005.6
20260506023803 53 356 1.0 5.0 0.00 0.00 0.00 53 1005.7
20260506023304 53 77 2.0 5.0 0.00 0.00 0.00 53 1005.6
20260506022804 53 39 2.0 7.0 0.00 0.00 0.00 53 1005.6
20260506022306 53 337 5.0 9.0 0.00 0.00 0.00 52 1005.6
20260506021804 53 10 0.0 2.0 0.00 0.00 0.00 52 1005.6
20260506021304 53 20 4.0 7.0 0.00 0.00 0.00 51 1005.6
20260506020804 53 32 1.0 3.0 0.00 0.00 0.00 53 1005.6
20260506020304 53 199 3.0 6.0 0.00 0.00 0.00 54 1005.6
20260506015804 53 35 0.0 2.0 0.00 0.00 0.00 55 1005.6
20260506015306 53 315 0.0 3.0 0.00 0.00 0.00 55 1005.6
20260506014804 53 354 3.0 6.0 0.00 0.00 0.00 54 1005.6
20260506014304 53 2 3.0 7.0 0.00 0.00 0.00 54 1005.6
20260506013804 53 56 5.0 7.0 0.00 0.00 0.00 54 1005.6
20260506013304 53 43 5.0 7.0 0.00 0.00 0.00 54 1005.6
20260506012804 54 229 2.0 5.0 0.00 0.00 0.00 56 1005.7